Location: Franzen
(48.6167°N, 15.3833°E)
Time: 06:33:01
(UTC+00:00)

Transit 2A - Pass Details

Date: 07 August 2021
Orbit: 594 x 964 km, 66.7° (Epoch: 24 September)

Event Time Altitude Azimuth Distance (km) Brightness Sun altitude
Rises 08:46:11 0° 320° (NW) 3,090 8.7 47.2°
Reaches altitude 10° 08:50:23 10° 354° (N) 2,269 8.3 47.7°
Maximum altitude 08:51:59 11° 13° (NNE) 2,218 8.3 47.9°
Drops below altitude 10° 08:53:38 10° 31° (NNE) 2,347 8.6 48.1°
Sets 08:58:13 0° 64° (ENE) 3,386 9.6 48.7°
